Time,TemperatureF,DewpointF,PressureIn,WindDirection,WindDirectionDegrees,WindSpeedMPH,WindSpeedGustMPH,Humidity,HourlyPrecipIn,Conditions,Clouds,dailyrainin,SoftwareType,DateUTC
2013-03-23 00:00:00,24.2,20.9,29.71,WNW,296,3.0,6.0,87,0.00,SCT,OVC,0.00,WeatherDisplay:10.37,2013-03-23 04:00:00,
2013-03-23 00:05:00,24.3,21.0,29.71,WNW,287,5.0,7.0,87,0.00,SCT,OVC,0.00,WeatherDisplay:10.37,2013-03-23 04:05:00,
2013-03-23 00:10:00,24.4,20.8,29.71,WNW,288,2.0,7.0,86,0.00,SCT,OVC,0.00,WeatherDisplay:10.37,2013-03-23 04:10:00,
2013-03-23 00:15:00,24.4,20.8,29.71,WNW,292,3.0,7.0,86,0.00,BKN,OVC,0.00,WeatherDisplay:10.37,2013-03-23 04:15:00,
2013-03-23 00:20:00,24.4,20.8,29.71,WNW,283,2.0,6.0,86,0.00,BKN,OVC,0.00,WeatherDisplay:10.37,2013-03-23 04:20:00,
2013-03-23 00:25:00,24.5,20.9,29.71,WNW,290,2.0,6.0,86,0.00,BKN,OVC,0.00,WeatherDisplay:10.37,2013-03-23 04:25:00,
2013-03-23 00:30:00,24.6,21.0,29.71,WNW,292,2.0,6.0,86,0.00,BKN,OVC,0.00,WeatherDisplay:10.37,2013-03-23 04:30:00,
2013-03-23 00:35:00,24.6,21.0,29.71,WNW,290,2.0,4.0,86,0.00,BKN,OVC,0.00,WeatherDisplay:10.37,2013-03-23 04:35:00,
2013-03-23 00:40:00,24.6,21.0,29.71,WNW,288,2.0,5.0,86,0.00,BKN,OVC,0.00,WeatherDisplay:10.37,2013-03-23 04:40:00,
2013-03-23 00:45:00,24.7,21.1,29.71,WNW,295,2.0,5.0,86,0.00,BKN,OVC,0.00,WeatherDisplay:10.37,2013-03-23 04:45:00,
2013-03-23 00:50:00,24.8,21.2,29.71,WNW,295,3.0,7.0,86,0.00,BKN,OVC,0.00,WeatherDisplay:10.37,2013-03-23 04:50:00,
2013-03-23 00:55:00,25.0,21.4,29.71,WNW,288,2.0,7.0,86,0.00,BKN,OVC,0.00,WeatherDisplay:10.37,2013-03-23 04:55:00,
2013-03-23 01:00:00,25.1,21.2,29.70,WNW,298,2.0,7.0,85,0.00,BKN,OVC,0.00,WeatherDisplay:10.37,2013-03-23 05:00:00,
2013-03-23 01:05:00,25.2,21.3,29.70,WNW,301,2.0,6.0,85,0.00,BKN,OVC,0.00,WeatherDisplay:10.37,2013-03-23 05:05:00,
2013-03-23 01:10:00,25.2,21.3,29.70,WNW,301,5.0,8.0,85,0.00,BKN,OVC,0.00,WeatherDisplay:10.37,2013-03-23 05:10:00,
2013-03-23 01:15:00,25.3,21.4,29.70,WNW,301,3.0,7.0,85,0.00,BKN,OVC,0.00,WeatherDisplay:10.37,2013-03-23 05:15:00,
2013-03-23 01:20:00,25.4,21.5,29.70,WNW,303,5.0,8.0,85,0.00,BKN,OVC,0.00,WeatherDisplay:10.37,2013-03-23 05:20:00,
2013-03-23 01:25:00,25.4,21.2,29.70,WNW,296,3.0,7.0,84,0.00,BKN,OVC,0.00,WeatherDisplay:10.37,2013-03-23 05:25:00,
2013-03-23 01:30:00,25.4,21.2,29.70,WNW,301,3.0,7.0,84,0.00,BKN,OVC,0.00,WeatherDisplay:10.37,2013-03-23 05:30:00,
2013-03-23 01:35:00,25.3,21.2,29.70,WNW,303,3.0,6.0,84,0.00,BKN,OVC,0.00,WeatherDisplay:10.37,2013-03-23 05:35:00,
2013-03-23 01:40:00,25.3,21.1,29.70,WNW,292,3.0,6.0,84,0.00,BKN,OVC,0.00,WeatherDisplay:10.37,2013-03-23 05:40:00,
2013-03-23 01:45:00,25.3,21.1,29.70,WNW,299,3.0,5.0,84,0.00,BKN,OVC,0.00,WeatherDisplay:10.37,2013-03-23 05:45:00,
2013-03-23 01:50:00,25.2,21.0,29.70,NW,305,5.0,6.0,84,0.00,BKN,OVC,0.00,WeatherDisplay:10.37,2013-03-23 05:50:00,
2013-03-23 01:55:00,25.1,20.9,29.70,WNW,288,2.0,6.0,84,0.00,BKN,OVC,0.00,WeatherDisplay:10.37,2013-03-23 05:55:00,
2013-03-23 02:00:00,25.0,20.8,29.69,West,281,3.0,7.0,84,0.00,BKN,OVC,0.00,WeatherDisplay:10.37,2013-03-23 06:00:00,
2013-03-23 02:05:00,24.7,20.6,29.69,WNW,296,2.0,6.0,84,0.00,BKN,OVC,0.00,WeatherDisplay:10.37,2013-03-23 06:05:00,
2013-03-23 02:10:00,24.5,20.4,29.69,WNW,303,3.0,6.0,84,0.00,BKN,OVC,0.00,WeatherDisplay:10.37,2013-03-23 06:10:00,
2013-03-23 02:15:00,24.3,20.2,29.69,WNW,299,5.0,8.0,84,0.00,BKN,OVC,0.00,WeatherDisplay:10.37,2013-03-23 06:15:00,
2013-03-23 02:20:00,24.2,20.0,29.69,WNW,293,2.0,7.0,84,0.00,BKN,OVC,0.00,WeatherDisplay:10.37,2013-03-23 06:20:00,
2013-03-23 02:30:00,23.7,20.1,29.68,WNW,291,6.0,9.0,86,0.00,BKN,OVC,0.00,WeatherDisplay:10.37,2013-03-23 06:30:00,
2013-03-23 02:35:00,23.7,19.9,29.68,WNW,298,5.0,7.0,85,0.00,BKN,OVC,0.00,WeatherDisplay:10.37,2013-03-23 06:35:00,
2013-03-23 02:40:00,23.7,20.1,29.68,WNW,300,3.0,9.0,86,0.00,BKN,OVC,0.00,WeatherDisplay:10.37,2013-03-23 06:40:00,
2013-03-23 02:45:00,23.7,20.1,29.68,WNW,303,3.0,8.0,86,0.00,BKN,OVC,0.00,WeatherDisplay:10.37,2013-03-23 06:45:00,
2013-03-23 02:50:00,23.7,20.1,29.68,NW,304,5.0,8.0,86,0.00,BKN,OVC,0.00,WeatherDisplay:10.37,2013-03-23 06:50:00,
2013-03-23 02:55:00,23.7,20.1,29.68,NW,304,3.0,9.0,86,0.00,BKN,OVC,0.00,WeatherDisplay:10.37,2013-03-23 06:55:00,
2013-03-23 03:00:00,23.7,20.4,29.68,WNW,295,5.0,7.0,87,0.00,BKN,OVC,0.00,WeatherDisplay:10.37,2013-03-23 07:00:00,
2013-03-23 03:05:00,23.7,20.4,29.67,WNW,300,5.0,8.0,87,0.00,BKN,OVC,0.00,WeatherDisplay:10.37,2013-03-23 07:05:00,
2013-03-23 03:10:00,23.5,20.2,29.67,WNW,297,2.0,7.0,87,0.00,BKN,OVC,0.00,WeatherDisplay:10.37,2013-03-23 07:10:00,
2013-03-23 03:15:00,23.2,19.6,29.67,WNW,292,2.0,7.0,86,0.00,SCT,OVC,0.00,WeatherDisplay:10.37,2013-03-23 07:15:00,
2013-03-23 03:20:00,23.0,19.8,29.67,West,276,1.0,8.0,87,0.00,SCT,OVC,0.00,WeatherDisplay:10.37,2013-03-23 07:20:00,
2013-03-23 03:25:00,22.9,19.6,29.67,WNW,291,2.0,8.0,87,0.00,SCT,OVC,0.00,WeatherDisplay:10.37,2013-03-23 07:25:00,
2013-03-23 03:30:00,22.8,19.5,29.67,WNW,302,3.0,7.0,87,0.00,SCT,OVC,0.00,WeatherDisplay:10.37,2013-03-23 07:30:00,
2013-03-23 03:35:00,22.9,19.6,29.67,WNW,289,2.0,9.0,87,0.00,SCT,OVC,0.00,WeatherDisplay:10.37,2013-03-23 07:35:00,
2013-03-23 03:40:00,22.9,19.9,29.67,West,277,2.0,10.0,88,0.00,SCT,OVC,0.00,WeatherDisplay:10.37,2013-03-23 07:40:00,
2013-03-23 03:45:00,23.0,20.0,29.67,West,279,5.0,8.0,88,0.00,SCT,OVC,0.00,WeatherDisplay:10.37,2013-03-23 07:45:00,
2013-03-23 03:50:00,23.1,19.8,29.67,West,281,2.0,6.0,87,0.00,SCT,OVC,0.00,WeatherDisplay:10.37,2013-03-23 07:50:00,
2013-03-23 03:55:00,23.2,19.9,29.67,WNW,291,2.0,8.0,87,0.00,SCT,OVC,0.00,WeatherDisplay:10.37,2013-03-23 07:55:00,
2013-03-23 04:00:00,23.2,19.9,29.67,WNW,297,6.0,12.0,87,0.00,SCT,OVC,0.00,WeatherDisplay:10.37,2013-03-23 08:00:00,
2013-03-23 04:05:00,23.3,20.0,29.67,WNW,303,3.0,8.0,87,0.00,SCT,OVC,0.00,WeatherDisplay:10.37,2013-03-23 08:05:00,
2013-03-23 04:10:00,23.3,20.0,29.67,WNW,303,3.0,8.0,87,0.00,SCT,OVC,0.00,WeatherDisplay:10.37,2013-03-23 08:10:00,
2013-03-23 04:15:00,23.3,19.7,29.67,NW,310,5.0,10.0,86,0.00,FEW,OVC,0.00,WeatherDisplay:10.37,2013-03-23 08:15:00,
2013-03-23 04:25:00,23.7,20.4,29.67,NW,315,5.0,9.0,87,0.00,FEW,OVC,0.00,WeatherDisplay:10.37,2013-03-23 08:25:00,
2013-03-23 04:30:00,24.0,20.4,29.67,NW,304,6.0,14.0,86,0.00,FEW,OVC,0.00,WeatherDisplay:10.37,2013-03-23 08:30:00,
2013-03-23 04:35:00,24.2,20.6,29.67,WNW,300,6.0,12.0,86,0.00,FEW,OVC,0.00,WeatherDisplay:10.37,2013-03-23 08:35:00,
2013-03-23 04:40:00,24.3,20.4,29.67,WNW,298,6.0,13.0,85,0.00,FEW,OVC,0.00,WeatherDisplay:10.37,2013-03-23 08:40:00,
2013-03-23 04:45:00,24.3,20.4,29.67,WNW,294,6.0,9.0,85,0.00,FEW,OVC,0.00,WeatherDisplay:10.37,2013-03-23 08:45:00,
2013-03-23 04:50:00,24.3,20.5,29.67,WNW,288,8.0,12.0,85,0.00,FEW,OVC,0.00,WeatherDisplay:10.37,2013-03-23 08:50:00,
2013-03-23 05:00:00,24.4,20.6,29.67,NW,304,6.0,12.0,85,0.00,FEW,OVC,0.00,WeatherDisplay:10.37,2013-03-23 09:00:00,
2013-03-23 05:05:00,24.4,20.3,29.67,NW,306,6.0,9.0,84,0.00,FEW,OVC,0.00,WeatherDisplay:10.37,2013-03-23 09:05:00,
2013-03-23 05:10:00,24.5,20.4,29.67,WNW,300,5.0,12.0,84,0.00,FEW,OVC,0.00,WeatherDisplay:10.37,2013-03-23 09:10:00,
2013-03-23 05:15:00,24.6,20.4,29.67,NW,304,6.0,13.0,84,0.00,FEW,OVC,0.00,WeatherDisplay:10.37,2013-03-23 09:15:00,
2013-03-23 05:20:00,24.5,20.4,29.67,WNW,294,3.0,13.0,84,0.00,FEW,OVC,0.00,WeatherDisplay:10.37,2013-03-23 09:20:00,
2013-03-23 05:25:00,24.4,20.0,29.67,WNW,292,3.0,9.0,83,0.00,FEW,OVC,0.00,WeatherDisplay:10.37,2013-03-23 09:25:00,
2013-03-23 05:30:00,24.3,19.9,29.67,WNW,294,5.0,10.0,83,0.00,FEW,OVC,0.00,WeatherDisplay:10.37,2013-03-23 09:30:00,
2013-03-23 05:35:00,24.3,19.9,29.67,WNW,286,6.0,12.0,83,0.00,FEW,OVC,0.00,WeatherDisplay:10.37,2013-03-23 09:35:00,
2013-03-23 05:40:00,24.3,19.9,29.67,West,280,5.0,13.0,83,0.00,FEW,OVC,0.00,WeatherDisplay:10.37,2013-03-23 09:40:00,
2013-03-23 05:45:00,24.3,19.9,29.67,WNW,287,5.0,12.0,83,0.00,FEW,OVC,0.00,WeatherDisplay:10.37,2013-03-23 09:45:00,
2013-03-23 05:50:00,24.2,19.8,29.67,WNW,285,3.0,9.0,83,0.00,FEW,OVC,0.00,WeatherDisplay:10.37,2013-03-23 09:50:00,
2013-03-23 05:55:00,24.1,19.7,29.67,West,274,6.0,8.0,83,0.00,FEW,OVC,0.00,WeatherDisplay:10.37,2013-03-23 09:55:00,
2013-03-23 06:05:00,24.0,19.6,29.67,WNW,290,3.0,8.0,83,0.00,FEW,OVC,0.00,WeatherDisplay:10.37,2013-03-23 10:05:00,
2013-03-23 06:10:00,23.8,19.4,29.67,WNW,294,5.0,10.0,83,0.00,FEW,OVC,0.00,WeatherDisplay:10.37,2013-03-23 10:10:00,
2013-03-23 06:15:00,23.7,19.3,29.67,WNW,288,5.0,9.0,83,0.00,FEW,OVC,0.00,WeatherDisplay:10.37,2013-03-23 10:15:00,
2013-03-23 06:20:00,23.8,19.6,29.67,West,279,6.0,10.0,84,0.00,FEW,OVC,0.00,WeatherDisplay:10.37,2013-03-23 10:20:00,
2013-03-23 06:25:00,23.8,19.4,29.67,West,277,3.0,9.0,83,0.00,FEW,OVC,0.00,WeatherDisplay:10.37,2013-03-23 10:25:00,
2013-03-23 06:30:00,23.8,19.7,29.67,WNW,293,5.0,9.0,84,0.00,FEW,OVC,0.00,WeatherDisplay:10.37,2013-03-23 10:30:00,
2013-03-23 06:35:00,23.8,19.4,29.67,WNW,293,3.0,6.0,83,0.00,FEW,OVC,0.00,WeatherDisplay:10.37,2013-03-23 10:35:00,
2013-03-23 06:40:00,23.7,19.3,29.67,WNW,284,2.0,7.0,83,0.00,FEW,OVC,0.00,WeatherDisplay:10.37,2013-03-23 10:40:00,
2013-03-23 06:45:00,23.7,19.3,29.67,WNW,285,2.0,8.0,83,0.00,FEW,OVC,0.00,WeatherDisplay:10.37,2013-03-23 10:45:00,
2013-03-23 06:50:00,23.6,19.2,29.67,WNW,292,2.0,8.0,83,0.00,FEW,OVC,0.00,WeatherDisplay:10.37,2013-03-23 10:50:00,
2013-03-23 06:55:00,23.5,19.4,29.67,WNW,282,2.0,7.0,84,0.00,FEW,OVC,0.00,WeatherDisplay:10.37,2013-03-23 10:55:00,
2013-03-23 07:00:00,23.5,19.4,29.67,West,278,2.0,9.0,84,0.00,FEW,OVC,0.00,WeatherDisplay:10.37,2013-03-23 11:00:00,
2013-03-23 07:05:00,23.5,19.1,29.67,WNW,289,3.0,9.0,83,0.00,FEW,OVC,0.00,WeatherDisplay:10.37,2013-03-23 11:05:00,
2013-03-23 07:10:00,23.4,19.0,29.67,WNW,297,2.0,6.0,83,0.00,FEW,OVC,0.00,WeatherDisplay:10.37,2013-03-23 11:10:00,
2013-03-23 07:15:00,23.4,19.0,29.67,West,278,2.0,7.0,83,0.00,SCT,OVC,0.00,WeatherDisplay:10.37,2013-03-23 11:15:00,
2013-03-23 07:20:00,23.4,19.0,29.67,West,275,2.0,8.0,83,0.00,SCT,OVC,0.00,WeatherDisplay:10.37,2013-03-23 11:20:00,
2013-03-23 07:25:00,23.4,19.2,29.67,West,277,3.0,6.0,84,0.00,SCT,OVC,0.00,WeatherDisplay:10.37,2013-03-23 11:25:00,
2013-03-23 07:30:00,23.5,19.4,29.67,West,271,2.0,8.0,84,0.00,SCT,OVC,0.00,WeatherDisplay:10.37,2013-03-23 11:30:00,
2013-03-23 07:35:00,23.8,19.4,29.67,West,262,3.0,7.0,83,0.00,SCT,OVC,0.00,WeatherDisplay:10.37,2013-03-23 11:35:00,
2013-03-23 07:40:00,24.0,19.6,29.67,West,278,2.0,6.0,83,0.00,SCT,OVC,0.00,WeatherDisplay:10.37,2013-03-23 11:40:00,
2013-03-23 07:45:00,24.1,19.4,29.67,West,272,3.0,12.0,82,0.00,SCT,OVC,0.00,WeatherDisplay:10.37,2013-03-23 11:45:00,
2013-03-23 07:50:00,24.2,19.5,29.66,West,260,3.0,12.0,82,0.00,SCT,OVC,0.00,WeatherDisplay:10.37,2013-03-23 11:50:00,
2013-03-23 07:55:00,24.0,19.3,29.67,West,266,3.0,7.0,82,0.00,SCT,OVC,0.00,WeatherDisplay:10.37,2013-03-23 11:55:00,
2013-03-23 08:00:00,24.1,19.4,29.66,West,279,5.0,9.0,82,0.00,SCT,OVC,0.00,WeatherDisplay:10.37,2013-03-23 12:00:00,
2013-03-23 08:10:00,24.3,19.6,29.66,West,279,3.0,9.0,82,0.00,SCT,OVC,0.00,WeatherDisplay:10.37,2013-03-23 12:10:00,
2013-03-23 08:15:00,24.5,19.8,29.66,West,277,3.0,12.0,82,0.00,SCT,OVC,0.00,WeatherDisplay:10.37,2013-03-23 12:15:00,
2013-03-23 08:20:00,24.8,20.1,29.66,West,266,3.0,6.0,82,0.00,SCT,OVC,0.00,WeatherDisplay:10.37,2013-03-23 12:20:00,
2013-03-23 08:25:00,25.2,20.2,29.66,WNW,293,2.0,12.0,81,0.00,SCT,OVC,0.00,WeatherDisplay:10.37,2013-03-23 12:25:00,
2013-03-23 08:30:00,25.6,20.5,29.66,WNW,294,9.0,18.0,81,0.00,SCT,OVC,0.00,WeatherDisplay:10.37,2013-03-23 12:30:00,
2013-03-23 08:35:00,26.0,20.7,29.66,WNW,294,7.0,12.0,80,0.00,SCT,OVC,0.00,WeatherDisplay:10.37,2013-03-23 12:35:00,
2013-03-23 08:40:00,26.3,20.6,29.66,WNW,284,6.0,14.0,79,0.00,SCT,OVC,0.00,WeatherDisplay:10.37,2013-03-23 12:40:00,
2013-03-23 08:45:00,26.5,20.8,29.66,WNW,295,6.0,12.0,79,0.00,SCT,OVC,0.00,WeatherDisplay:10.37,2013-03-23 12:45:00,
2013-03-23 08:50:00,26.8,21.2,29.66,WNW,301,8.0,14.0,79,0.00,SCT,OVC,0.00,WeatherDisplay:10.37,2013-03-23 12:50:00,
2013-03-23 08:55:00,27.3,21.4,29.66,NW,311,7.0,14.0,78,0.00,SCT,OVC,0.00,WeatherDisplay:10.37,2013-03-23 12:55:00,
2013-03-23 09:05:00,28.3,21.7,29.65,WNW,297,7.0,13.0,76,0.00,SCT,OVC,0.00,WeatherDisplay:10.37,2013-03-23 13:05:00,
2013-03-23 09:10:00,28.4,21.5,29.65,WNW,289,7.0,13.0,75,0.00,SCT,OVC,0.00,WeatherDisplay:10.37,2013-03-23 13:10:00,
2013-03-23 09:15:00,28.7,21.8,29.65,WNW,295,6.0,12.0,75,0.00,BKN,OVC,0.00,WeatherDisplay:10.37,2013-03-23 13:15:00,
2013-03-23 09:20:00,28.9,21.7,29.65,NW,304,8.0,14.0,74,0.00,BKN,OVC,0.00,WeatherDisplay:10.37,2013-03-23 13:20:00,
2013-03-23 09:25:00,29.1,21.8,29.65,NW,304,8.0,13.0,74,0.00,BKN,OVC,0.00,WeatherDisplay:10.37,2013-03-23 13:25:00,
2013-03-23 09:30:00,29.3,21.7,29.65,WNW,299,7.0,15.0,73,0.00,BKN,OVC,0.00,WeatherDisplay:10.37,2013-03-23 13:30:00,
2013-03-23 09:35:00,29.6,21.6,29.65,NW,305,5.0,14.0,72,0.00,BKN,OVC,0.00,WeatherDisplay:10.37,2013-03-23 13:35:00,
2013-03-23 09:40:00,29.8,21.9,29.65,WNW,300,8.0,20.0,72,0.00,BKN,OVC,0.00,WeatherDisplay:10.37,2013-03-23 13:40:00,
2013-03-23 09:45:00,30.1,21.8,29.65,WNW,293,8.0,17.0,71,0.00,BKN,OVC,0.00,WeatherDisplay:10.37,2013-03-23 13:45:00,
2013-03-23 09:50:00,30.3,21.7,29.65,NW,308,6.0,17.0,70,0.00,BKN,OVC,0.00,WeatherDisplay:10.37,2013-03-23 13:50:00,
2013-03-23 09:55:00,30.4,21.8,29.65,NW,312,7.0,14.0,70,0.00,BKN,OVC,0.00,WeatherDisplay:10.37,2013-03-23 13:55:00,
2013-03-23 10:00:00,30.5,21.5,29.65,NW,311,7.0,18.0,69,0.00,BKN,OVC,0.00,WeatherDisplay:10.37,2013-03-23 14:00:00,
2013-03-23 10:05:00,30.6,22.0,29.64,NW,317,9.0,16.0,70,0.00,BKN,OVC,0.00,WeatherDisplay:10.37,2013-03-23 14:05:00,
2013-03-23 10:15:00,31.6,22.2,29.65,NW,310,7.0,14.0,68,0.00,BKN,OVC,0.00,WeatherDisplay:10.37,2013-03-23 14:15:00,
2013-03-23 10:20:00,32.0,22.3,29.65,NW,305,6.0,15.0,67,0.00,BKN,OVC,0.00,WeatherDisplay:10.37,2013-03-23 14:20:00,
2013-03-23 10:25:00,32.8,22.3,29.64,WNW,299,10.0,16.0,65,0.00,BKN,OVC,0.00,WeatherDisplay:10.37,2013-03-23 14:25:00,
2013-03-23 10:30:00,33.1,22.6,29.64,NW,313,10.0,16.0,65,0.00,BKN,OVC,0.00,WeatherDisplay:10.37,2013-03-23 14:30:00,
2013-03-23 10:35:00,33.1,22.6,29.64,NNW,333,10.0,22.0,65,0.00,BKN,OVC,0.00,WeatherDisplay:10.37,2013-03-23 14:35:00,
2013-03-23 10:40:00,33.1,22.6,29.64,NW,325,6.0,18.0,65,0.00,BKN,OVC,0.00,WeatherDisplay:10.37,2013-03-23 14:40:00,
2013-03-23 10:45:00,33.4,22.5,29.64,NNW,329,8.0,15.0,64,0.00,BKN,OVC,0.00,WeatherDisplay:10.37,2013-03-23 14:45:00,
2013-03-23 10:50:00,33.4,22.5,29.64,NNW,329,5.0,17.0,64,0.00,BKN,OVC,0.00,WeatherDisplay:10.37,2013-03-23 14:50:00,
2013-03-23 11:00:00,34.7,23.0,29.64,NW,322,9.0,18.0,62,0.00,BKN,OVC,0.00,WeatherDisplay:10.37,2013-03-23 15:00:00,
2013-03-23 11:05:00,35.3,23.1,29.64,NNW,341,6.0,14.0,61,0.00,BKN,OVC,0.00,WeatherDisplay:10.37,2013-03-23 15:05:00,
2013-03-23 11:10:00,35.9,23.3,29.64,NNW,335,7.0,14.0,60,0.00,BKN,OVC,0.00,WeatherDisplay:10.37,2013-03-23 15:10:00,
2013-03-23 11:15:00,35.8,23.3,29.64,NW,326,9.0,20.0,60,0.00,BKN,OVC,0.00,WeatherDisplay:10.37,2013-03-23 15:15:00,
2013-03-23 11:20:00,35.6,23.0,29.64,NW,310,13.0,21.0,60,0.00,BKN,OVC,0.00,WeatherDisplay:10.37,2013-03-23 15:20:00,
2013-03-23 11:30:00,35.3,23.2,29.64,North,353,7.0,17.0,61,0.00,BKN,OVC,0.00,WeatherDisplay:10.37,2013-03-23 15:30:00,
2013-03-23 11:35:00,35.7,23.1,29.64,NW,320,13.0,20.0,60,0.00,BKN,OVC,0.00,WeatherDisplay:10.37,2013-03-23 15:35:00,
2013-03-23 11:40:00,35.6,23.5,29.64,NW,314,7.0,14.0,61,0.00,BKN,OVC,0.00,WeatherDisplay:10.37,2013-03-23 15:40:00,
2013-03-23 11:45:00,35.3,23.2,29.64,NW,325,10.0,17.0,61,0.00,BKN,OVC,0.00,WeatherDisplay:10.37,2013-03-23 15:45:00,
2013-03-23 11:55:00,35.1,23.0,29.64,NW,324,13.0,18.0,61,0.00,BKN,OVC,0.00,WeatherDisplay:10.37,2013-03-23 15:55:00,
2013-03-23 12:00:00,35.2,23.0,29.64,NW,311,9.0,20.0,61,0.00,BKN,OVC,0.00,WeatherDisplay:10.37,2013-03-23 16:00:00,
2013-03-23 12:05:00,35.5,23.0,29.64,NW,317,12.0,21.0,60,0.00,BKN,OVC,0.00,WeatherDisplay:10.37,2013-03-23 16:05:00,
2013-03-23 12:15:00,35.6,22.7,29.64,NW,312,12.0,23.0,59,0.00,BKN,OVC,0.00,WeatherDisplay:10.37,2013-03-23 16:15:00,
2013-03-23 12:20:00,35.8,22.9,29.64,NNW,332,9.0,20.0,59,0.00,BKN,OVC,0.00,WeatherDisplay:10.37,2013-03-23 16:20:00,
2013-03-23 12:25:00,35.7,23.2,29.64,North,351,10.0,20.0,60,0.00,BKN,OVC,0.00,WeatherDisplay:10.37,2013-03-23 16:25:00,
2013-03-23 12:30:00,35.9,22.9,29.64,NNW,332,7.0,13.0,59,0.00,BKN,OVC,0.00,WeatherDisplay:10.37,2013-03-23 16:30:00,
2013-03-23 12:35:00,36.3,23.4,29.64,NW,321,6.0,14.0,59,0.00,BKN,OVC,0.00,WeatherDisplay:10.37,2013-03-23 16:35:00,
2013-03-23 12:40:00,36.6,23.2,29.64,NW,309,15.0,23.0,58,0.00,BKN,OVC,0.00,WeatherDisplay:10.37,2013-03-23 16:40:00,
2013-03-23 12:45:00,36.3,22.9,29.65,NW,306,12.0,23.0,58,0.00,BKN,OVC,0.00,WeatherDisplay:10.37,2013-03-23 16:45:00,
2013-03-23 12:50:00,36.4,23.0,29.65,NW,323,10.0,18.0,58,0.00,BKN,OVC,0.00,WeatherDisplay:10.37,2013-03-23 16:50:00,
2013-03-23 12:55:00,36.3,22.9,29.65,NW,307,13.0,22.0,58,0.00,BKN,OVC,0.00,WeatherDisplay:10.37,2013-03-23 16:55:00,
2013-03-23 13:00:00,36.1,22.7,29.65,WNW,300,12.0,25.0,58,0.00,BKN,OVC,0.00,WeatherDisplay:10.37,2013-03-23 17:00:00,
2013-03-23 13:05:00,36.4,23.0,29.65,NW,309,10.0,16.0,58,0.00,BKN,OVC,0.00,WeatherDisplay:10.37,2013-03-23 17:05:00,
2013-03-23 13:10:00,36.5,22.7,29.65,NNW,328,9.0,20.0,57,0.00,BKN,OVC,0.00,WeatherDisplay:10.37,2013-03-23 17:10:00,
2013-03-23 13:15:00,37.0,23.6,29.65,NNW,336,7.0,16.0,58,0.00,BKN,OVC,0.00,WeatherDisplay:10.37,2013-03-23 17:15:00,
2013-03-23 13:20:00,37.3,23.4,29.66,NNW,333,8.0,17.0,57,0.00,BKN,OVC,0.00,WeatherDisplay:10.37,2013-03-23 17:20:00,
2013-03-23 13:25:00,37.7,23.4,29.65,NNW,327,7.0,12.0,56,0.00,BKN,OVC,0.00,WeatherDisplay:10.37,2013-03-23 17:25:00,
2013-03-23 13:30:00,37.9,23.6,29.66,NNW,332,6.0,25.0,56,0.00,BKN,OVC,0.00,WeatherDisplay:10.37,2013-03-23 17:30:00,
2013-03-23 13:35:00,37.6,23.3,29.66,NNW,343,10.0,25.0,56,0.00,BKN,OVC,0.00,WeatherDisplay:10.37,2013-03-23 17:35:00,
2013-03-23 13:40:00,37.8,23.5,29.66,NNW,331,8.0,23.0,56,0.00,BKN,OVC,0.00,WeatherDisplay:10.37,2013-03-23 17:40:00,
2013-03-23 13:45:00,37.7,23.4,29.66,NW,322,10.0,29.0,56,0.00,BKN,OVC,0.00,WeatherDisplay:10.37,2013-03-23 17:45:00,
2013-03-23 13:50:00,37.5,23.6,29.66,NNW,333,8.0,25.0,57,0.00,BKN,OVC,0.00,WeatherDisplay:10.37,2013-03-23 17:50:00,
2013-03-23 13:55:00,37.7,23.4,29.66,NNW,345,7.0,16.0,56,0.00,BKN,OVC,0.00,WeatherDisplay:10.37,2013-03-23 17:55:00,
2013-03-23 14:00:00,38.3,23.6,29.66,NW,326,9.0,20.0,55,0.00,BKN,OVC,0.00,WeatherDisplay:10.37,2013-03-23 18:00:00,
2013-03-23 14:05:00,39.1,23.8,29.66,NW,319,8.0,21.0,54,0.00,BKN,OVC,0.00,WeatherDisplay:10.37,2013-03-23 18:05:00,
2013-03-23 14:10:00,39.1,24.3,29.66,NW,317,9.0,17.0,55,0.00,BKN,OVC,0.00,WeatherDisplay:10.37,2013-03-23 18:10:00,
2013-03-23 14:15:00,38.3,23.9,29.66,NNW,329,7.0,21.0,56,0.00,BKN,OVC,0.00,WeatherDisplay:10.37,2013-03-23 18:15:00,
2013-03-23 14:20:00,37.8,23.1,29.66,NW,321,9.0,23.0,55,0.00,BKN,OVC,0.00,WeatherDisplay:10.37,2013-03-23 18:20:00,
2013-03-23 14:25:00,38.0,23.2,29.66,NW,309,15.0,20.0,55,0.00,BKN,OVC,0.00,WeatherDisplay:10.37,2013-03-23 18:25:00,
2013-03-23 14:30:00,38.1,23.8,29.66,NW,318,7.0,20.0,56,0.00,BKN,OVC,0.00,WeatherDisplay:10.37,2013-03-23 18:30:00,
2013-03-23 14:40:00,38.3,23.5,29.66,NW,310,9.0,20.0,55,0.00,BKN,OVC,0.00,WeatherDisplay:10.37,2013-03-23 18:40:00,
2013-03-23 14:45:00,38.4,23.7,29.66,WNW,299,15.0,23.0,55,0.00,BKN,OVC,0.00,WeatherDisplay:10.37,2013-03-23 18:45:00,
2013-03-23 14:50:00,38.1,23.8,29.66,WNW,293,10.0,22.0,56,0.00,BKN,OVC,0.00,WeatherDisplay:10.37,2013-03-23 18:50:00,
2013-03-23 14:55:00,38.1,23.3,29.66,WNW,303,10.0,18.0,55,0.00,BKN,OVC,0.00,WeatherDisplay:10.37,2013-03-23 18:55:00,
2013-03-23 15:00:00,37.7,23.8,29.66,NW,310,10.0,17.0,57,0.00,BKN,OVC,0.00,WeatherDisplay:10.37,2013-03-23 19:00:00,
2013-03-23 15:05:00,37.4,23.1,29.67,NNW,332,13.0,25.0,56,0.00,BKN,OVC,0.00,WeatherDisplay:10.37,2013-03-23 19:05:00,
2013-03-23 15:10:00,37.7,24.2,29.67,NNW,331,8.0,19.0,58,0.00,BKN,OVC,0.00,WeatherDisplay:10.37,2013-03-23 19:10:00,
2013-03-23 15:15:00,37.5,23.6,29.67,NW,314,10.0,25.0,57,0.00,BKN,OVC,0.00,WeatherDisplay:10.37,2013-03-23 19:15:00,
2013-03-23 15:20:00,37.5,23.6,29.67,NW,308,9.0,18.0,57,0.00,BKN,OVC,0.00,WeatherDisplay:10.37,2013-03-23 19:20:00,
2013-03-23 15:30:00,37.2,23.8,29.68,NW,322,6.0,16.0,58,0.00,BKN,OVC,0.00,WeatherDisplay:10.37,2013-03-23 19:30:00,
2013-03-23 15:35:00,37.3,23.5,29.68,NW,321,6.0,21.0,57,0.00,BKN,OVC,0.00,WeatherDisplay:10.37,2013-03-23 19:35:00,
2013-03-23 15:40:00,37.0,23.6,29.68,NW,320,13.0,22.0,58,0.00,BKN,OVC,0.00,WeatherDisplay:10.37,2013-03-23 19:40:00,
2013-03-23 15:45:00,37.0,23.6,29.68,NW,314,7.0,20.0,58,0.00,BKN,OVC,0.00,WeatherDisplay:10.37,2013-03-23 19:45:00,
2013-03-23 15:50:00,37.3,24.3,29.68,NW,310,9.0,16.0,59,0.00,BKN,OVC,0.00,WeatherDisplay:10.37,2013-03-23 19:50:00,
2013-03-23 15:55:00,37.5,24.5,29.69,WNW,302,7.0,15.0,59,0.00,BKN,OVC,0.00,WeatherDisplay:10.37,2013-03-23 19:55:00,
2013-03-23 16:00:00,37.3,24.3,29.68,WNW,297,9.0,14.0,59,0.00,BKN,OVC,0.00,WeatherDisplay:10.37,2013-03-23 20:00:00,
2013-03-23 16:05:00,37.1,24.0,29.69,WNW,301,8.0,22.0,59,0.00,BKN,OVC,0.00,WeatherDisplay:10.37,2013-03-23 20:05:00,
2013-03-23 16:10:00,37.0,24.0,29.69,NW,309,10.0,25.0,59,0.00,BKN,OVC,0.00,WeatherDisplay:10.37,2013-03-23 20:10:00,
2013-03-23 16:15:00,36.9,24.3,29.69,WNW,299,9.0,17.0,60,0.00,BKN,OVC,0.00,WeatherDisplay:10.37,2013-03-23 20:15:00,
2013-03-23 16:20:00,36.7,24.1,29.70,NW,304,9.0,17.0,60,0.00,BKN,OVC,0.00,WeatherDisplay:10.37,2013-03-23 20:20:00,
2013-03-23 16:25:00,36.7,24.1,29.70,NW,312,12.0,16.0,60,0.00,BKN,OVC,0.00,WeatherDisplay:10.37,2013-03-23 20:25:00,
2013-03-23 16:30:00,36.6,24.4,29.70,WNW,300,10.0,20.0,61,0.00,BKN,OVC,0.00,WeatherDisplay:10.37,2013-03-23 20:30:00,
2013-03-23 16:40:00,36.5,24.3,29.70,NW,309,8.0,20.0,61,0.00,BKN,OVC,0.00,WeatherDisplay:10.37,2013-03-23 20:40:00,
2013-03-23 16:45:00,36.5,24.3,29.71,NW,306,5.0,14.0,61,0.00,BKN,OVC,0.00,WeatherDisplay:10.37,2013-03-23 20:45:00,
2013-03-23 16:50:00,36.5,24.4,29.71,NW,311,6.0,16.0,61,0.00,BKN,OVC,0.00,WeatherDisplay:10.37,2013-03-23 20:50:00,
2013-03-23 16:55:00,36.5,24.3,29.71,NW,314,5.0,12.0,61,0.00,BKN,OVC,0.00,WeatherDisplay:10.37,2013-03-23 20:55:00,
2013-03-23 17:00:00,36.5,24.3,29.71,WNW,296,7.0,15.0,61,0.00,BKN,OVC,0.00,WeatherDisplay:10.37,2013-03-23 21:00:00,
2013-03-23 17:05:00,36.3,24.1,29.72,WNW,298,8.0,17.0,61,0.00,BKN,OVC,0.00,WeatherDisplay:10.37,2013-03-23 21:05:00,
2013-03-23 17:10:00,36.1,24.3,29.72,WNW,291,9.0,20.0,62,0.00,BKN,OVC,0.00,WeatherDisplay:10.37,2013-03-23 21:10:00,
2013-03-23 17:20:00,35.8,24.1,29.72,NW,321,6.0,14.0,62,0.00,OVC,OVC,0.00,WeatherDisplay:10.37,2013-03-23 21:20:00,
2013-03-23 17:25:00,35.8,24.4,29.72,NW,326,2.0,14.0,63,0.00,OVC,OVC,0.00,WeatherDisplay:10.37,2013-03-23 21:25:00,
2013-03-23 17:30:00,35.8,24.4,29.73,NW,318,3.0,11.0,63,0.00,OVC,OVC,0.00,WeatherDisplay:10.37,2013-03-23 21:30:00,
2013-03-23 17:35:00,35.7,24.3,29.73,NW,324,5.0,12.0,63,0.00,OVC,OVC,0.00,WeatherDisplay:10.37,2013-03-23 21:35:00,
2013-03-23 17:40:00,35.7,24.3,29.73,NW,315,7.0,14.0,63,0.00,OVC,OVC,0.00,WeatherDisplay:10.37,2013-03-23 21:40:00,
2013-03-23 17:45:00,35.6,24.2,29.73,WNW,294,12.0,20.0,63,0.00,OVC,OVC,0.00,WeatherDisplay:10.37,2013-03-23 21:45:00,
2013-03-23 17:55:00,35.5,24.5,29.73,WNW,298,8.0,16.0,64,0.00,OVC,OVC,0.00,WeatherDisplay:10.37,2013-03-23 21:55:00,
2013-03-23 18:00:00,35.4,24.4,29.73,WNW,298,5.0,13.0,64,0.00,OVC,OVC,0.00,WeatherDisplay:10.37,2013-03-23 22:00:00,
2013-03-23 18:05:00,35.4,24.4,29.74,WNW,288,6.0,12.0,64,0.00,OVC,OVC,0.00,WeatherDisplay:10.37,2013-03-23 22:05:00,
2013-03-23 18:10:00,35.4,24.4,29.74,WNW,299,9.0,16.0,64,0.00,OVC,OVC,0.00,WeatherDisplay:10.37,2013-03-23 22:10:00,
2013-03-23 18:15:00,35.4,24.4,29.74,NW,314,7.0,13.0,64,0.00,OVC,OVC,0.00,WeatherDisplay:10.37,2013-03-23 22:15:00,
2013-03-23 18:20:00,35.4,24.4,29.74,WNW,297,9.0,14.0,64,0.00,OVC,OVC,0.00,WeatherDisplay:10.37,2013-03-23 22:20:00,
2013-03-23 18:25:00,35.3,24.4,29.75,WNW,296,5.0,12.0,64,0.00,OVC,OVC,0.00,WeatherDisplay:10.37,2013-03-23 22:25:00,
2013-03-23 18:30:00,35.3,24.7,29.75,NW,308,7.0,13.0,65,0.00,OVC,OVC,0.00,WeatherDisplay:10.37,2013-03-23 22:30:00,
2013-03-23 18:35:00,35.2,24.6,29.75,NW,312,8.0,14.0,65,0.00,OVC,OVC,0.00,WeatherDisplay:10.37,2013-03-23 22:35:00,
2013-03-23 18:40:00,35.1,24.8,29.75,WNW,303,7.0,13.0,66,0.00,OVC,OVC,0.00,WeatherDisplay:10.37,2013-03-23 22:40:00,
2013-03-23 18:50:00,34.9,24.3,29.75,WNW,303,6.0,17.0,65,0.00,OVC,OVC,0.00,WeatherDisplay:10.37,2013-03-23 22:50:00,
2013-03-23 18:55:00,34.8,24.6,29.75,WNW,302,6.0,13.0,66,0.00,OVC,OVC,0.00,WeatherDisplay:10.37,2013-03-23 22:55:00,
2013-03-23 19:00:00,34.7,24.5,29.75,WNW,303,3.0,9.0,66,0.00,OVC,OVC,0.00,WeatherDisplay:10.37,2013-03-23 23:00:00,
2013-03-23 19:05:00,34.6,24.4,29.75,WNW,302,5.0,13.0,66,0.00,OVC,OVC,0.00,WeatherDisplay:10.37,2013-03-23 23:05:00,
2013-03-23 19:10:00,34.6,24.4,29.76,WNW,300,6.0,12.0,66,0.00,OVC,OVC,0.00,WeatherDisplay:10.37,2013-03-23 23:10:00,
2013-03-23 19:15:00,34.5,24.3,29.76,WNW,300,5.0,10.0,66,0.00,OVC,OVC,0.00,WeatherDisplay:10.37,2013-03-23 23:15:00,
2013-03-23 19:25:00,34.5,24.4,29.76,WNW,300,3.0,14.0,66,0.00,OVC,OVC,0.00,WeatherDisplay:10.37,2013-03-23 23:25:00,
2013-03-23 19:30:00,34.5,24.3,29.76,WNW,300,8.0,13.0,66,0.00,OVC,OVC,0.00,WeatherDisplay:10.37,2013-03-23 23:30:00,
2013-03-23 19:35:00,34.5,24.7,29.77,WNW,300,3.0,8.0,67,0.00,OVC,OVC,0.00,WeatherDisplay:10.37,2013-03-23 23:35:00,
2013-03-23 19:40:00,34.4,24.6,29.77,WNW,282,7.0,10.0,67,0.00,OVC,OVC,0.00,WeatherDisplay:10.37,2013-03-23 23:40:00,
2013-03-23 19:45:00,34.3,24.5,29.77,West,281,6.0,9.0,67,0.00,OVC,OVC,0.00,WeatherDisplay:10.37,2013-03-23 23:45:00,
2013-03-23 19:50:00,34.2,24.8,29.77,WNW,284,3.0,8.0,68,0.00,OVC,OVC,0.00,WeatherDisplay:10.37,2013-03-23 23:50:00,
2013-03-23 20:00:00,34.2,24.7,29.77,WNW,294,6.0,12.0,68,0.00,OVC,OVC,0.00,WeatherDisplay:10.37,2013-03-24 00:00:00,
2013-03-23 20:05:00,34.2,24.4,29.77,WNW,288,9.0,14.0,67,0.00,OVC,OVC,0.00,WeatherDisplay:10.37,2013-03-24 00:05:00,
2013-03-23 20:10:00,34.2,24.7,29.78,WNW,286,7.0,13.0,68,0.00,OVC,OVC,0.00,WeatherDisplay:10.37,2013-03-24 00:10:00,
2013-03-23 20:15:00,34.2,24.4,29.78,WNW,292,7.0,12.0,67,0.00,OVC,OVC,0.00,WeatherDisplay:10.37,2013-03-24 00:15:00,
2013-03-23 20:20:00,34.1,24.7,29.78,WNW,295,6.0,12.0,68,0.00,OVC,OVC,0.00,WeatherDisplay:10.37,2013-03-24 00:20:00,
2013-03-23 20:30:00,34.1,24.6,29.78,WNW,303,6.0,14.0,68,0.00,OVC,OVC,0.00,WeatherDisplay:10.37,2013-03-24 00:30:00,
2013-03-23 20:35:00,34.0,24.6,29.78,WNW,292,6.0,15.0,68,0.00,OVC,OVC,0.00,WeatherDisplay:10.37,2013-03-24 00:35:00,
2013-03-23 20:40:00,34.0,24.6,29.78,WNW,288,5.0,12.0,68,0.00,OVC,OVC,0.00,WeatherDisplay:10.37,2013-03-24 00:40:00,
2013-03-23 20:45:00,34.0,24.5,29.78,West,280,6.0,12.0,68,0.00,OVC,OVC,0.00,WeatherDisplay:10.37,2013-03-24 00:45:00,
2013-03-23 20:55:00,34.0,24.9,29.79,West,281,5.0,15.0,69,0.00,OVC,OVC,0.00,WeatherDisplay:10.37,2013-03-24 00:55:00,
2013-03-23 21:00:00,33.9,24.4,29.79,WNW,291,6.0,9.0,68,0.00,OVC,OVC,0.00,WeatherDisplay:10.37,2013-03-24 01:00:00,
2013-03-23 21:10:00,33.9,24.8,29.79,WNW,294,8.0,14.0,69,0.00,OVC,OVC,0.00,WeatherDisplay:10.37,2013-03-24 01:10:00,
2013-03-23 21:15:00,33.9,24.8,29.80,WNW,301,5.0,12.0,69,0.00,OVC,OVC,0.00,WeatherDisplay:10.37,2013-03-24 01:15:00,
2013-03-23 21:20:00,33.8,24.7,29.80,NW,305,6.0,11.0,69,0.00,OVC,OVC,0.00,WeatherDisplay:10.37,2013-03-24 01:20:00,
2013-03-23 21:25:00,33.8,24.7,29.80,NW,319,8.0,12.0,69,0.00,OVC,OVC,0.00,WeatherDisplay:10.37,2013-03-24 01:25:00,
2013-03-23 21:30:00,33.7,24.6,29.80,WNW,299,7.0,9.0,69,0.00,OVC,OVC,0.00,WeatherDisplay:10.37,2013-03-24 01:30:00,
2013-03-23 21:35:00,33.6,24.9,29.80,WNW,296,6.0,7.0,70,0.00,OVC,OVC,0.00,WeatherDisplay:10.37,2013-03-24 01:35:00,
2013-03-23 21:40:00,33.6,24.9,29.80,WNW,285,6.0,13.0,70,0.00,OVC,OVC,0.00,WeatherDisplay:10.37,2013-03-24 01:40:00,
2013-03-23 21:45:00,33.6,24.9,29.80,WNW,295,5.0,7.0,70,0.00,OVC,OVC,0.00,WeatherDisplay:10.37,2013-03-24 01:45:00,
2013-03-23 21:50:00,33.6,24.9,29.80,NW,305,2.0,12.0,70,0.00,OVC,OVC,0.00,WeatherDisplay:10.37,2013-03-24 01:50:00,
2013-03-23 21:55:00,33.5,24.8,29.80,WNW,300,2.0,10.0,70,0.00,OVC,OVC,0.00,WeatherDisplay:10.37,2013-03-24 01:55:00,
2013-03-23 22:00:00,33.4,24.7,29.80,West,281,5.0,7.0,70,0.00,OVC,OVC,0.00,WeatherDisplay:10.37,2013-03-24 02:00:00,
2013-03-23 22:05:00,33.4,24.7,29.80,WNW,298,5.0,12.0,70,0.00,OVC,OVC,0.00,WeatherDisplay:10.37,2013-03-24 02:05:00,
2013-03-23 22:10:00,33.4,24.7,29.80,WNW,300,2.0,9.0,70,0.00,OVC,OVC,0.00,WeatherDisplay:10.37,2013-03-24 02:10:00,
2013-03-23 22:15:00,33.3,24.9,29.80,NW,304,5.0,10.0,71,0.00,OVC,OVC,0.00,WeatherDisplay:10.37,2013-03-24 02:15:00,
2013-03-23 22:20:00,33.3,24.9,29.80,WNW,290,2.0,9.0,71,0.00,OVC,OVC,0.00,WeatherDisplay:10.37,2013-03-24 02:20:00,
2013-03-23 22:25:00,33.2,24.8,29.80,West,279,6.0,12.0,71,0.00,OVC,OVC,0.00,WeatherDisplay:10.37,2013-03-24 02:25:00,
2013-03-23 22:30:00,33.2,24.8,29.80,WNW,291,6.0,8.0,71,0.00,OVC,OVC,0.00,WeatherDisplay:10.37,2013-03-24 02:30:00,
2013-03-23 22:35:00,33.3,24.9,29.80,WNW,289,3.0,7.0,71,0.00,OVC,OVC,0.00,WeatherDisplay:10.37,2013-03-24 02:35:00,
2013-03-23 22:40:00,33.2,25.1,29.80,West,275,5.0,12.0,72,0.00,OVC,OVC,0.00,WeatherDisplay:10.37,2013-03-24 02:40:00,
2013-03-23 22:45:00,33.2,24.8,29.80,WNW,286,5.0,9.0,71,0.00,OVC,OVC,0.00,WeatherDisplay:10.37,2013-03-24 02:45:00,
2013-03-23 22:50:00,33.2,24.8,29.80,WNW,293,6.0,10.0,71,0.00,OVC,OVC,0.00,WeatherDisplay:10.37,2013-03-24 02:50:00,
2013-03-23 22:55:00,33.1,24.7,29.80,WNW,296,6.0,12.0,71,0.00,OVC,OVC,0.00,WeatherDisplay:10.37,2013-03-24 02:55:00,
2013-03-23 23:05:00,33.1,24.7,29.80,NW,304,5.0,10.0,71,0.00,OVC,OVC,0.00,WeatherDisplay:10.37,2013-03-24 03:05:00,
2013-03-23 23:10:00,33.1,25.0,29.80,WNW,294,2.0,12.0,72,0.00,OVC,OVC,0.00,WeatherDisplay:10.37,2013-03-24 03:10:00,
2013-03-23 23:15:00,32.9,24.9,29.79,WNW,299,7.0,12.0,72,0.00,OVC,OVC,0.00,WeatherDisplay:10.37,2013-03-24 03:15:00,
2013-03-23 23:20:00,32.9,24.5,29.79,WNW,296,6.0,10.0,71,0.00,OVC,OVC,0.00,WeatherDisplay:10.37,2013-03-24 03:20:00,
2013-03-23 23:25:00,32.9,24.9,29.79,NW,307,6.0,12.0,72,0.00,OVC,OVC,0.00,WeatherDisplay:10.37,2013-03-24 03:25:00,
2013-03-23 23:30:00,32.9,24.8,29.79,NW,307,6.0,10.0,72,0.00,OVC,OVC,0.00,WeatherDisplay:10.37,2013-03-24 03:30:00,
2013-03-23 23:35:00,32.8,24.8,29.79,WNW,300,7.0,12.0,72,0.00,OVC,OVC,0.00,WeatherDisplay:10.37,2013-03-24 03:35:00,
2013-03-23 23:40:00,32.8,24.8,29.79,WNW,294,6.0,12.0,72,0.00,OVC,OVC,0.00,WeatherDisplay:10.37,2013-03-24 03:40:00,
2013-03-23 23:45:00,32.8,24.8,29.80,WNW,295,6.0,10.0,72,0.00,OVC,OVC,0.00,WeatherDisplay:10.37,2013-03-24 03:45:00,
2013-03-23 23:50:00,32.8,24.8,29.79,WNW,303,8.0,13.0,72,0.00,OVC,OVC,0.00,WeatherDisplay:10.37,2013-03-24 03:50:00,
2013-03-23 23:55:00,32.8,24.8,29.79,WNW,302,3.0,10.0,72,0.00,OVC,OVC,0.00,WeatherDisplay:10.37,2013-03-24 03:55:00,